Location: Ahstedt
(52.2048°N, 10.1060°E)
Time: 08:39:24
(UTC+00:00)

Helios 1A Rocket - Visible Passes

Search period start: 10 April 2026 00:00
Search period end: 20 April 2026 00:00
Orbit: 413 x 421 km, 98.3° (Epoch: 9 April)

Date Brightness Start Highest point End Pass type
(mag) Time Alt. Az. Time Alt. Az. Time Alt. Az.
10 Apr 2.2 19:20:04 10° NNE 19:23:19 85° ESE 19:26:33 10° SSW visible
10 Apr 6.0 20:54:25 10° NW 20:54:47 10° NW 20:55:08 10° WNW visible
11 Apr 4.6 20:07:21 10° N 20:10:09 27° WNW 20:12:55 10° SW visible
12 Apr 2.2 19:21:57 10° NNE 19:25:12 86° ESE 19:28:25 10° SSW visible
13 Apr 4.6 20:09:07 10° N 20:11:53 27° WNW 20:14:39 10° SW visible
14 Apr 2.2 19:23:34 10° NNE 19:26:49 87° ESE 19:30:02 10° SSW visible
15 Apr 4.6 20:10:36 10° N 20:13:22 26° WNW 20:16:07 10° SW visible
16 Apr 2.2 19:24:56 10° NNE 19:28:10 87° ESE 19:31:22 10° SSW visible
17 Apr 4.6 20:11:51 10° N 20:14:36 26° WNW 20:17:20 10° SW visible
18 Apr 2.2 19:26:02 10° NNE 19:29:16 87° ESE 19:32:28 10° SSW visible
19 Apr 4.6 20:12:48 10° N 20:15:34 27° WNW 20:18:18 10° SW visible
